Regional Weather Roundup
Issued by NWS Wilmington, NC

Home | Current Version | Previous Version | Text Only | Print | Product List | Glossary On
Versions: 1 2 3 4 5 6 7 8 9 10 11 12 13 14 15 16 17 18 19 20 21 22 23 24 25 26 27
000
ASUS42 KILM 240913
RWRILM
RWRILM
REGIONAL HOURLY WEATHER ROUNDUP
NATIONAL WEATHER SERVICE WILMINGTON NC
500 AM EDT SAT JUN 24 2017

NOTE: "FAIR" INDICATES FEW OR NO CLOUDS BELOW 12,000 FEET WITH NO
SIGNIFICANT WEATHER AND/OR OBSTRUCTIONS TO VISIBILITY.

...............WFO WILMINGTON COUNTY WARNING AREA...............

......COASTAL NC AND SC COUNTIES......

CITY           SKY/WX    TMP DP  RH WIND       PRES   REMARKS
WILMINGTON     MOCLDY    80  74  81 SW14G26   29.93S
N MYRTLE BEACH MOCLDY    80  75  84 SW16      29.94R
MYRTLE BEACH   PTCLDY    79  74  84 SW10G18   29.96R

......INLAND NC AND SC COUNTIES.......

CITY           SKY/WX    TMP DP  RH WIND       PRES   REMARKS
LUMBERTON      CLEAR     77  74  90 SW9       29.89F
ELIZABETHTOWN  NOT AVBL
WHITEVILLE     CLEAR     78  73  84 SW9       29.93S
FLORENCE       CLEAR     77  75  93 SW10      29.92S
DARLINGTON     PTCLDY    77  74  90 SW13      29.91F
KINGSTREE      FAIR      77  72  83 SW6       29.95S
HARTSVILLE     FAIR      75  72  88 SW6G16    29.92R
BENNETTSVILLE  FAIR      79  77  94 SW9G17    29.90S
CONWAY         FAIR      77  72  83 S7        29.95S
GEORGETOWN     FAIR      77  77 100 SW9       29.98R
MARION         FAIR      75  72  88 SW7       29.93S

....................REST OF NORTH CAROLINA......................

.........EASTERN NC.........

CITY           SKY/WX    TMP DP  RH WIND       PRES   REMARKS
CAPE HATTERAS  MOCLDY    79  74  84 SW20G28   29.91S
JACKSONVILLE   MOCLDY    78  74  87 S15       29.91F
MOREHEAD CITY  MOCLDY    80  78  94 SW22G31   29.92F
KENANSVILLE    PTCLDY    77  72  83 SW6       29.89F
NEW BERN       CLEAR     78  74  87 SW14G22   29.90F
ELIZABETH CITY CLEAR     79  71  76 S22G30    29.80F

.........CENTRAL NC.........

CITY           SKY/WX    TMP DP  RH WIND       PRES   REMARKS
RALEIGH DURHAM CLOUDY    77  74  90 W13G26    29.84S
ROCKY MOUNT    MOCLDY    77  72  84 S16G25    29.83S
ROANOKE RAPIDS NOT AVBL
FAYETTEVILLE   PTCLDY    79  74  84 SW13      29.88S
HOFFMAN        MOCLDY    77  73  87 SW12      29.88S

.........WESTERN NC.........

CITY           SKY/WX    TMP DP  RH WIND       PRES   REMARKS
CHARLOTTE      CLOUDY    74  70  87 W6        29.91S
GREENSBORO     CLOUDY    75  71  87 W9        29.86S
HICKORY        NOT AVBL
BOONE          NOT AVBL
ASHEVILLE      NOT AVBL

.....................REST OF SOUTH CAROLINA.....................

.........EASTERN SC.........

CITY           SKY/WX    TMP DP  RH WIND       PRES   REMARKS
CHARLESTON     PTCLDY    79  75  87 SW12      29.97R
BEAUFORT MCAS  MOCLDY    79  77  94 SW6       29.98R
HILTON HEAD    PTCLDY    81  79  94 S8        29.99R

.........CENTRAL SC.........

CITY           SKY/WX    TMP DP  RH WIND       PRES   REMARKS
COLUMBIA       CLEAR     79  73  82 SW8       29.92S
ORANGEBURG     CLEAR     76  73  91 SW7       29.96S
SUMTER SHAW    CLEAR     78  73  85 SW15      29.91S

.........WESTERN SC.........

CITY           SKY/WX    TMP DP  RH WIND       PRES   REMARKS
GREENVILLE     NOT AVBL
ROCK HILL      PTCLDY    75  71  87 SW9       29.92R
ANDERSON       CLOUDY    75  71  87 W9        29.94R
CLEMSON        NOT AVBL
GREENWOOD      PTCLDY    74  69  85 SW8       29.95S


...................COASTAL AND OFFSHORE REPORTS..................

................LOCAL PIERS AND NC RESERVE................


STATION/POSITION TIME  SKY/WX   TEMP    WIND        PRES    VSBY
                                AIR SEA DIR/SP/G
                 (UTC)          (F)     (DEG/KT/KT) (MB)    (MI)
JOHNY MRCER PIER 0848            80 79  220/ 22/ 26 1012.5S
NC RESRV MASNBRO 0745            80     250/  8     1015.0
OCEAN CREST PIER NOT AVBL
SPRINGMAID  PIER 0848                               1013.4R


................COASTAL AND OFFSHORE BUOYS................


STATION/POSITION TIME  SKY/WX   TEMP    WIND        PRES    VSBY
                                AIR SEA DIR/SP/G
                 (UTC)          (F)     (DEG/KT/KT) (MB)    (MI)
DIMNDSHOAL 41025 0850            81 80  230/ 23/ 29 1012.4F
WVE H/P(F/S)=  8/ 7 SWL H/P/D(F/S/D)=  2/130/ 9

CAPE LOOKOUT     0900            80     220/ 17/ 23 1013.1S
ONSLOW BAY 41036 NOT AVBL
ONSLOW BAY 41064 0808            80 80  220/ 21/ 29 1013.5F
ONSLOW BAY 41159 0843               80                N/A
WVE H/P(F/S)=  8/ 6 SWL H/P/D(F/S/D)=  2/160/11

MASNBO INL 41110 0859               78                N/A
WVE H/P(F/S)=  5/ 5

WILM HARBR 41108 NOT AVBL
27SE WRITB 41037 0808            79 79  210/ 21/ 31 1012.7F
FRYING PAN 41013 0900            81 80  220/ 21/ 29 1014.4
SUNST NRSH 41024 0808            79 78  230/ 16/ 19 1013.7R
CAPRS NRSH 41029 0808            85 82  230/ 21/ 29 1014.0F
EDISTO     41004 0850            81 81  210/ 21/ 25 1014.6R
WVE H/P(F/S)=  6/ 6 SWL H/P/D(F/S/D)=  2/140/ 9



..........OFFSHORE BUOYS BEYOND 100 NM OFFSHORE...........
.....IN A TRIANGLE---HAT TO BERMUDA TO BAHAMAS TO HAT.....


STATION/POSITION TIME  SKY/WX   TEMP    WIND        PRES    VSBY
                                AIR SEA DIR/SP/G
                 (UTC)          (F)     (DEG/KT/KT) (MB)    (MI)
150E HAT   41001 0900            79 79  230/ 19/ 23 1015.8
W BERMUDA  41048 0900            80 80  250/ 12/ 14 1019.8
ATLANTIC S 41049 0850            80 82   80/ 10/ 12 1020.5R
WVE H/P(F/S)=  4/ 8 SWL H/P/D(F/S/D)=  3/ 90/ 8

E BAHAMAS  41046 0900            81 83  100/ 14/ 17 1017.5
NE BAHAMAS 41047 0900            81 82  110/  6/  8 1019.6
120E CANVRL41010 0900            82 83  170/ 12/ 16 1017.1

END




USA.gov is the U.S. government's official web portal to all federal, state and local government web resources and services.